Location: Casco Volunteer Fire Department
(44.5576°N, 87.6146°W)
Time: 05:13:47
(UTC+00:00)

AQUARIUS - Pass Details

Date: 22 January 2026
Orbit: 633 x 636 km, 98.0° (Epoch: 11 February)

Event Time Altitude Azimuth Distance (km) Brightness Sun altitude
Rises 23:45:02 0° 170° (S) 2,920 7.6 -10.6°
Reaches altitude 10° 23:47:14 10° 173° (S) 2,016 6.8 -11.0°
Maximum altitude 23:51:37 72° 258° (WSW) 671 4.4 -11.7°
Drops below altitude 10° 23:56:02 10° 343° (NNW) 2,031 6.7 -12.5°
Sets 23:58:16 0° 345° (NNW) 2,944 7.5 -12.9°
